Regional Weather Roundup
Issued by NWS

Home | Current Version | Previous Version | Graphics & Text | Print | Product List | Glossary On
Versions: 1 2 3 4 5 6 7 8 9 10 11 12 13 14 15 16 17 18 19 20 21 22 23 24 25 26 27 28 29 30 31 32 33 34 35 36 37 38 39 40 41 42 43 44 45 46 47 48 49 50
000
ASUS44 KMEG 170000
RWRTN
TENNESSEE HOURLY STATE WEATHER ROUNDUP
NATIONAL WEATHER SERVICE MEMPHIS TN
600 PM CST SAT DEC 16 2017

TNZ002-004-019-021-049-052-054-088>092-170100-
WEST TENNESSEE

CITY           SKY/WX    TMP DP  RH WIND       PRES   REMARKS
MEMPHIS INTL   PTCLDY    46  30  53 S7        30.16R
NWS MEMPHIS      N/A     50 N/A N/A MISG        N/A
JACKSON        PTCLDY    44  30  57 S3        30.18R
DYERSBURG      PTCLDY    48  30  49 CALM      30.16R
$$

TNZ008-025-027-028-033-062-065-066-170100-
NORTH MIDDLE TENNESSEE

CITY           SKY/WX    TMP DP  RH WIND       PRES   REMARKS
NASHVILLE      CLOUDY    44  29  55 S6        30.20R
CLARKSVILLE    CLOUDY    45  26  47 S6        30.16S
SMYRNA         CLOUDY    43  30  60 S3        30.22R
CROSSVILLE     CLOUDY    38  27  64 S6        30.20R WCI  33
$$

TNZ061-075-076-078-094-096-097-170100-
SOUTH MIDDLE TENNESSEE

CITY           SKY/WX    TMP DP  RH WIND       PRES   REMARKS
$$

TNZ017-018-042-046-047-170100-
NORTHEAST TENNESSEE

CITY           SKY/WX    TMP DP  RH WIND       PRES   REMARKS
TRI CITIES     CLOUDY    34  27  75 CALM      30.22R
$$

TNZ012-013-036-069-073-074-170100-
CENTRAL EAST TENNESSEE

CITY           SKY/WX    TMP DP  RH WIND       PRES   REMARKS
KNOXVILLE      CLOUDY    42  30  62 CALM      30.23R
OAK RIDGE      CLOUDY    39  29  67 CALM      30.25R
$$

TNZ083-085-099-170100-
SOUTHEAST TENNESSEE

CITY           SKY/WX    TMP DP  RH WIND       PRES   REMARKS
CHATTANOOGA    CLOUDY    41  29  62 CALM      30.23S
$$

SKY/WX REPORTED AS FAIR MEANS FEW OR NO CLOUDS BELOW
12 THOUSAND FEET.





USA.gov is the U.S. government's official web portal to all federal, state and local government web resources and services.